Wind_Speed
17 17 16 15 14 13 13 13 13 12 10 9 8 7 8 10 12 14 15 7 4 6 6 5 2 2 4 6 6 6 5 3 5 7 4 4 5 4 5 7 1 1 8 12 15
18 17 17 17 16 14 13 12 13 12 11 8 7 7 9 12 13 11 4 5 7 5 3 2 3 5 4 4 5 5 4 10 6 8 3 1 4 11 5 4 4 14 18 18 17
18 18 17 17 17 16 13 12 12 12 10 7 7 9 11 13 7 3 4 4 8 7 2 2 5 4 3 4 5 5 6 5 5 10 6 4 7 6 15 2 2 16 21 18 19
19 18 18 17 17 17 15 12 11 11 8 7 8 10 12 9 2 1 3 2 8 5 3 3 5 3 3 2 4 1 8 9 3 9 10 13 15 9 7 7 17 16 16 19 16
20 19 18 18 17 16 16 13 11 9 6 7 9 10 11 5 3 2 5 2 8 7 5 7 4 2 2 2 3 4 4 1 7 7 10 20 13 11 19 18 17 14 15 13 12
21 20 20 18 17 16 15 14 11 8 6 7 9 10 10 4 1 3 4 2 4 6 8 7 2 2 2 2 4 4 6 4 12 16 12 20 10 8 6 15 15 13 12 11 10
23 22 21 20 18 17 15 14 10 8 7 7 9 11 14 10 3 2 2 4 5 5 3 1 3 2 1 2 2 2 5 8 5 5 8 17 8 7 11 16 16 14 12 11 14
24 23 22 21 19 17 15 14 10 8 8 9 10 11 8 4 6 6 4 4 2 1 2 5 4 5 3 2 4 4 5 5 5 3 4 4 4 10 12 17 14 12 11 10 10
26 25 23 21 21 18 15 14 10 8 9 10 10 7 8 5 9 6 7 5 1 5 5 5 6 1 0 4 4 6 3 3 1 3 2 4 6 12 15 19 16 12 12 12 12
27 26 25 22 20 19 16 12 10 8 9 9 11 6 8 1 3 6 8 8 6 5 3 2 1 3 4 4 3 2 1 3 3 2 7 5 9 13 15 19 17 15 14 14 15
27 26 25 23 21 18 14 8 6 4 7 9 3 13 20 12 8 4 8 9 6 1 2 3 4 5 9 6 3 2 3 6 2 2 7 7 14 11 15 18 16 14 13 14 15
28 27 25 23 20 16 7 1 2 4 9 15 19 21 21 17 7 4 3 6 5 4 3 5 4 7 5 3 3 3 7 5 6 6 8 12 10 7 8 7 10 12 12 13 14
28 27 26 22 19 7 6 4 1 8 4 10 15 17 16 11 8 11 9 8 3 4 5 5 5 5 3 2 5 2 5 7 6 8 11 12 5 3 1 5 7 7 7 8 8
27 26 26 22 10 7 2 4 7 2 4 6 4 7 11 8 4 8 12 9 1 8 5 5 4 4 3 3 5 3 5 9 14 4 5 2 4 4 4 4 7 8 10 11 11
26 25 24 21 19 11 5 7 3 3 3 3 4 3 14 11 3 7 13 12 7 4 4 5 4 4 4 2 4 4 7 7 4 4 6 1 4 4 5 7 8 15 17 15 14
26 24 25 21 18 8 7 3 9 5 6 4 6 6 5 5 2 3 5 9 2 3 1 5 3 1 4 3 0 8 6 7 5 3 2 2 5 4 6 9 6 17 22 18 17
27 23 23 20 13 4 2 8 5 3 5 2 3 4 3 4 2 3 5 5 5 3 2 5 3 3 4 6 6 6 6 3 4 4 5 1 4 6 6 4 12 21 27 22 21
27 24 20 16 13 12 7 4 4 4 6 5 3 2 8 5 4 2 4 3 1 5 3 4 4 2 2 3 7 3 6 5 4 2 4 2 4 4 3 7 12 26 28 24 24
28 22 11 6 11 14 8 3 8 6 3 5 6 4 3 3 4 3 6 7 8 8 6 4 2 3 5 2 3 3 4 4 6 3 3 3 4 3 3 1 17 25 27 27 26
29 20 2 3 7 18 3 7 5 4 4 3 2 3 7 5 5 6 7 4 6 9 3 7 4 2 2 2 11 4 5 4 3 1 3 4 4 4 5 7 6 15 27 28 27
20 8 9 7 15 6 4 6 5 6 4 2 1 5 6 6 8 6 7 3 5 4 5 5 4 3 1 3 5 2 2 7 5 4 5 2 5 6 8 12 16 21 29 33 28
12 3 3 10 2 2 3 5 2 3 2 5 3 8 5 5 4 6 10 5 3 10 9 2 6 4 1 4 3 2 4 5 5 4 1 3 6 2 5 16 22 23 32 30 27
19 7 3 6 2 2 4 3 3 3 4 4 5 6 3 5 4 3 3 2 3 5 9 7 2 3 6 6 4 3 3 5 5 3 5 5 5 2 1 12 20 25 29 27 26
9 4 5 5 5 2 4 4 4 5 5 4 6 3 1 2 4 5 3 4 2 3 10 8 4 6 7 6 4 3 3 4 5 4 4 6 5 5 4 8 17 25 28 27 28
9 3 4 4 4 5 2 3 4 5 4 3 3 5 6 3 3 3 2 1 4 2 4 4 5 3 1 3 3 3 4 5 6 5 6 6 7 7 8 10 19 28 26 28 29
8 7 10 5 10 4 4 2 2 6 3 4 3 2 4 6 7 9 6 4 5 4 3 4 2 2 2 0 2 2 6 6 6 3 5 3 6 2 6 16 20 26 29 30 28
12 6 5 6 6 3 3 4 3 6 7 13 8 3 2 4 5 4 7 9 6 8 4 4 6 4 3 2 4 4 6 4 4 4 5 6 7 8 4 14 25 29 31 29 27
Wind_Direction
17 15 9 359 351 344 342 343 343 339 333 328 322 319 314 305 297 290 281 273 243 207 215 213 228 159 148 157 138 126 70 180 216 152 199 219 119 107 125 144 197 180 169 140 143
10 8 7 2 356 346 336 334 336 337 336 335 336 335 326 321 310 293 291 228 202 186 192 205 158 141 130 137 147 108 128 214 202 169 172 304 112 129 121 110 72 123 137 132 135
3 2 0 357 355 351 340 330 331 333 335 341 342 337 333 330 329 76 44 159 174 178 210 163 148 136 125 142 166 163 190 209 228 192 236 135 110 118 119 46 232 146 136 135 148
355 355 354 352 351 349 345 334 328 328 330 335 335 331 332 326 167 62 32 156 196 203 201 155 147 121 101 142 183 135 238 219 327 187 162 156 127 93 57 105 140 134 138 150 152
348 348 346 346 345 345 343 336 328 324 320 325 328 327 335 310 275 322 319 286 201 205 177 141 140 119 129 186 169 188 261 172 276 145 122 133 95 103 94 126 140 135 140 122 105
343 342 341 340 338 338 337 333 325 318 309 319 323 320 321 300 285 313 3 102 162 166 161 167 136 317 241 211 167 217 341 114 100 101 111 109 103 79 92 138 123 133 102 97 103
343 338 336 335 333 331 331 327 317 305 299 308 315 312 301 255 244 219 179 116 119 105 117 230 293 268 188 243 258 285 78 47 16 71 115 94 32 90 124 151 112 110 95 86 75
340 339 335 331 329 326 327 319 310 287 287 298 308 308 272 228 217 208 221 213 204 235 263 310 332 276 215 331 1 54 72 106 262 204 152 74 162 142 142 143 106 101 98 86 77
336 337 336 331 326 323 324 315 304 271 273 284 295 296 272 244 245 225 208 213 149 325 287 292 290 296 23 88 15 10 169 118 166 213 90 78 132 153 147 141 113 109 102 92 80
333 333 334 332 325 322 322 314 302 264 259 271 268 289 249 77 325 234 218 233 255 315 152 215 149 60 29 79 204 214 8 83 99 66 39 66 115 122 127 130 121 116 106 98 90
331 330 331 331 326 323 320 312 295 282 246 224 255 264 284 294 334 194 240 237 233 231 111 30 72 220 218 203 154 141 101 94 42 331 70 97 133 119 121 122 125 125 121 110 101
329 327 328 329 326 323 327 5 69 348 298 268 261 262 260 275 294 229 225 184 164 186 102 19 235 227 204 197 169 173 120 117 49 92 87 127 106 95 113 135 144 147 141 127 111
327 326 325 327 327 322 336 160 244 302 257 282 243 236 243 236 222 239 202 188 143 147 185 172 226 108 167 171 134 94 157 166 138 100 67 123 102 149 129 132 152 159 131 115 128
326 325 323 326 326 328 316 176 330 178 43 275 233 227 192 181 255 242 212 179 161 202 186 225 268 164 168 122 122 119 122 132 145 122 167 204 205 229 182 174 191 185 184 175 172
325 324 319 318 305 307 255 293 293 139 339 244 205 188 170 169 160 190 191 190 163 186 111 261 333 150 110 193 136 161 131 139 132 103 108 159 96 267 141 222 205 201 202 192 187
322 322 311 309 299 289 231 260 147 46 252 319 160 158 133 185 181 117 154 200 185 128 309 246 306 136 141 73 111 137 87 57 58 88 52 138 138 253 194 216 185 199 199 193 190
320 317 305 293 283 239 219 165 52 157 320 330 218 153 151 164 232 156 148 157 149 105 322 11 346 329 107 76 28 74 59 355 349 11 216 75 105 245 228 223 191 189 197 196 201
321 317 304 284 258 224 208 68 173 231 257 296 1 90 172 159 235 161 105 147 133 101 100 132 352 20 359 142 157 57 134 148 222 214 269 304 225 259 271 256 217 200 194 196 199
325 325 308 265 220 194 180 130 202 205 272 341 330 134 213 207 181 138 187 190 199 168 144 134 52 338 39 101 100 181 67 152 105 23 52 279 274 279 12 12 177 179 189 195 195
333 330 27 212 198 179 104 216 211 224 353 9 281 177 185 197 155 156 179 202 199 186 163 196 105 53 194 89 41 123 148 70 19 161 272 296 282 252 217 205 177 176 183 190 192
337 340 352 143 143 187 176 222 239 253 354 345 294 304 212 172 175 181 201 253 181 132 96 129 105 249 63 32 172 54 65 52 110 123 175 240 261 217 211 191 191 190 189 193 192
353 351 21 171 76 43 169 203 223 247 334 261 240 213 232 165 142 194 203 203 137 150 143 117 124 121 175 301 241 124 147 132 120 227 125 148 273 189 244 203 188 183 193 196 196
337 300 17 194 156 278 297 277 244 247 215 233 250 200 209 169 116 147 156 353 186 133 157 179 48 71 358 354 354 117 123 102 103 84 194 139 262 11 85 171 184 176 190 190 191
350 347 348 63 48 80 19 318 297 300 249 255 255 242 255 149 34 156 135 359 83 100 115 111 112 151 180 194 160 160 154 130 119 110 194 221 265 263 186 169 171 180 186 187 191
4 22 0 326 355 350 325 350 331 322 328 285 234 208 186 139 86 125 126 125 46 120 66 98 115 104 101 143 144 188 212 170 185 199 169 251 207 251 207 188 177 183 179 184 189
17 5 344 292 316 331 345 26 356 321 281 291 317 281 191 153 180 192 149 184 175 34 69 17 127 116 110 87 81 280 265 236 217 190 246 206 259 215 135 162 167 180 184 188 188
11 347 335 309 337 6 354 323 301 355 267 257 315 277 176 245 217 260 159 151 172 139 119 90 127 97 198 17 45 334 250 246 245 194 160 172 231 156 162 165 176 184 192 191 192
Height
1533 1530 1527 1525 1523 1521 1519 1517 1515 1513 1511 1510 1509 1508 1507 1506 1505 1504 1503 1505 1506 1507 1509 1511 1512 1512 1513 1514 1516 1518 1535 1545 1532 1536 1528 1524 1526 1531 1532 1534 1535 1535 1534 1536 1540
1534 1531 1528 1526 1523 1520 1518 1516 1515 1513 1511 1510 1508 1508 1506 1505 1503 1501 1503 1502 1504 1506 1508 1508 1509 1510 1511 1513 1516 1518 1535 1531 1520 1522 1523 1522 1523 1528 1533 1536 1537 1535 1537 1541 1542
1534 1531 1529 1526 1523 1520 1517 1515 1513 1512 1510 1510 1508 1507 1506 1504 1502 1501 1501 1501 1503 1505 1506 1507 1508 1509 1511 1513 1515 1517 1525 1518 1516 1519 1519 1520 1524 1527 1531 1538 1537 1536 1540 1543 1544
1534 1532 1529 1526 1523 1520 1516 1514 1512 1511 1510 1509 1509 1507 1505 1504 1506 1501 1501 1502 1503 1504 1506 1506 1508 1509 1512 1514 1513 1517 1513 1512 1513 1513 1515 1519 1523 1528 1532 1538 1540 1541 1543 1544 1545
1534 1531 1528 1524 1521 1519 1516 1513 1511 1510 1509 1509 1508 1506 1505 1504 1501 1500 1501 1501 1502 1504 1505 1506 1507 1509 1512 1512 1513 1515 1510 1512 1509 1511 1512 1517 1524 1528 1538 1540 1542 1544 1546 1549 1552
1533 1529 1526 1522 1519 1517 1514 1512 1510 1509 1509 1508 1507 1506 1505 1505 1500 1500 1500 1500 1502 1504 1505 1506 1508 1508 1509 1510 1512 1510 1511 1511 1512 1512 1515 1519 1530 1529 1544 1544 1545 1547 1549 1551 1552
1531 1527 1524 1521 1518 1515 1513 1510 1509 1508 1507 1507 1506 1505 1503 1500 1499 1500 1500 1502 1503 1504 1505 1506 1508 1508 1508 1509 1509 1508 1516 1515 1516 1517 1521 1520 1535 1541 1544 1545 1548 1549 1551 1553 1556
1529 1525 1521 1518 1515 1513 1510 1508 1506 1506 1506 1506 1505 1504 1500 1498 1498 1499 1500 1501 1503 1504 1505 1506 1506 1507 1507 1508 1507 1510 1515 1529 1521 1518 1520 1521 1548 1546 1547 1546 1550 1551 1552 1554 1555
1526 1523 1519 1516 1512 1509 1508 1505 1504 1504 1504 1504 1504 1504 1498 1497 1497 1498 1499 1501 1502 1503 1504 1505 1505 1506 1506 1512 1520 1520 1527 1523 1524 1520 1522 1525 1544 1546 1548 1549 1552 1555 1555 1557 1558
1523 1520 1516 1513 1509 1507 1505 1503 1502 1501 1502 1502 1502 1505 1497 1497 1496 1496 1498 1499 1501 1502 1504 1504 1505 1509 1513 1518 1535 1523 1521 1526 1525 1524 1528 1533 1540 1544 1549 1550 1555 1558 1560 1562 1561
1521 1517 1513 1510 1507 1504 1503 1502 1504 1502 1498 1496 1496 1496 1494 1495 1495 1495 1496 1498 1501 1502 1505 1505 1512 1519 1511 1508 1509 1512 1518 1530 1529 1525 1533 1539 1541 1546 1549 1553 1556 1559 1561 1561 1562
1518 1514 1511 1508 1505 1502 1501 1501 1501 1503 1497 1492 1491 1490 1491 1493 1494 1493 1496 1499 1500 1505 1504 1511 1515 1503 1503 1505 1508 1512 1521 1531 1532 1530 1532 1543 1549 1550 1550 1553 1555 1557 1562 1562 1560
1515 1511 1508 1505 1502 1501 1500 1500 1501 1500 1498 1486 1484 1484 1488 1490 1491 1491 1494 1496 1498 1503 1505 1512 1502 1498 1500 1502 1507 1508 1516 1524 1531 1533 1536 1540 1550 1551 1552 1552 1554 1557 1557 1558 1561
1513 1509 1505 1502 1502 1500 1499 1500 1499 1498 1507 1490 1482 1479 1483 1487 1488 1487 1490 1495 1497 1501 1502 1505 1496 1497 1498 1499 1504 1511 1508 1515 1524 1532 1550 1536 1561 1552 1551 1553 1553 1554 1556 1560 1561
1510 1506 1503 1500 1499 1498 1499 1498 1498 1498 1529 1482 1479 1477 1478 1484 1484 1485 1487 1491 1495 1496 1500 1502 1495 1497 1500 1498 1500 1508 1507 1515 1520 1529 1537 1543 1554 1553 1552 1553 1551 1552 1555 1558 1560
1505 1502 1498 1497 1495 1495 1495 1496 1498 1514 1523 1482 1475 1477 1479 1480 1482 1484 1485 1489 1491 1494 1496 1496 1492 1493 1494 1498 1498 1502 1511 1521 1531 1538 1550 1539 1548 1552 1550 1539 1546 1548 1552 1555 1558
1499 1497 1493 1492 1492 1493 1493 1496 1512 1523 1487 1481 1478 1476 1478 1482 1482 1483 1487 1491 1499 1509 1506 1500 1499 1494 1494 1501 1501 1506 1523 1551 1548 1555 1555 1540 1548 1541 1535 1534 1535 1540 1546 1552 1554
1493 1489 1487 1486 1486 1489 1491 1496 1513 1497 1492 1476 1475 1477 1482 1481 1481 1482 1487 1495 1492 1497 1513 1517 1522 1500 1495 1499 1509 1515 1520 1550 1550 1562 1553 1540 1547 1538 1534 1533 1534 1537 1544 1548 1552
1488 1484 1481 1480 1481 1485 1489 1506 1503 1493 1482 1481 1477 1480 1482 1479 1481 1483 1490 1495 1490 1491 1508 1514 1512 1498 1496 1498 1502 1514 1529 1525 1548 1555 1558 1554 1542 1536 1534 1533 1532 1536 1542 1546 1550
1485 1481 1479 1479 1479 1483 1489 1496 1488 1482 1480 1480 1487 1476 1487 1483 1485 1488 1492 1482 1484 1484 1486 1501 1517 1502 1500 1500 1504 1505 1517 1534 1547 1550 1552 1555 1548 1541 1537 1535 1536 1537 1539 1545 1549
1485 1480 1480 1478 1481 1484 1493 1491 1484 1480 1480 1481 1482 1483 1478 1479 1480 1487 1486 1479 1478 1485 1486 1495 1507 1511 1503 1509 1513 1516 1523 1536 1543 1553 1559 1561 1550 1526 1525 1526 1528 1532 1536 1540 1545
1487 1485 1483 1481 1484 1486 1488 1483 1479 1478 1478 1479 1477 1478 1477 1474 1478 1483 1485 1477 1476 1478 1489 1492 1509 1522 1512 1508 1507 1509 1517 1528 1550 1546 1557 1559 1551 1519 1520 1520 1523 1528 1532 1537 1543
1491 1485 1483 1482 1487 1487 1483 1480 1478 1476 1476 1477 1474 1469 1467 1471 1480 1477 1477 1477 1475 1477 1483 1488 1514 1535 1528 1518 1508 1510 1516 1528 1536 1545 1552 1558 1544 1519 1518 1519 1523 1527 1531 1536 1542
1496 1493 1484 1482 1485 1484 1486 1483 1480 1473 1473 1473 1470 1466 1469 1469 1473 1479 1478 1477 1476 1476 1477 1481 1508 1515 1530 1517 1513 1514 1513 1521 1529 1553 1542 1542 1526 1518 1520 1520 1521 1525 1529 1534 1539
1500 1499 1501 1496 1489 1490 1488 1486 1484 1480 1473 1471 1467 1467 1468 1473 1475 1478 1478 1478 1478 1478 1479 1483 1505 1505 1508 1507 1508 1509 1511 1517 1523 1523 1533 1522 1526 1513 1513 1515 1519 1522 1529 1533 1537
1504 1505 1501 1496 1493 1491 1491 1489 1486 1484 1479 1472 1469 1464 1463 1469 1470 1477 1474 1476 1475 1478 1482 1486 1509 1504 1512 1509 1510 1512 1510 1512 1516 1516 1518 1517 1521 1510 1512 1514 1520 1523 1526 1530 1535
1508 1508 1507 1499 1495 1493 1494 1492 1488 1487 1475 1472 1471 1469 1466 1463 1462 1463 1464 1467 1467 1473 1485 1492 1505 1517 1518 1515 1515 1526 1513 1509 1507 1508 1510 1519 1508 1509 1513 1513 1516 1520 1523 1527 1532